COSMOS 2424 (715)

Last updated on Oct. 16, 2017, 12:19 a.m. UTC

1 29672U 06062C   17288.68918079  .00000017  00000-0  10000-3 0  9996
2 29672  65.4049 300.8099 0017874 173.2031 278.8517  2.13102095 84103
UTC
Height (km)
Latitude
Longitude
Inclination
Orbital Period
UTC large
Height (km)
Speed (km/s)
/
Latitude / Longitude
Inclination (degrees)
Orbital Period (minutes)
Azimuth
Elevation
Range (km)
Doppler Factor
iOS Compass Heading
iOS Angle